Year,Month,Day,Hour,Minute,Value (Times are PST for temperature in C)
2006,07,10,00,00,18.90
2006,07,10,00,01,18.90
2006,07,10,00,02,18.90
2006,07,10,00,03,19.00
2006,07,10,00,04,19.10
2006,07,10,00,05,19.10
2006,07,10,00,06,19.10
2006,07,10,00,07,19.00
2006,07,10,00,08,18.90
2006,07,10,00,09,18.90
2006,07,10,00,10,18.90
2006,07,10,00,11,18.90
2006,07,10,00,12,18.90
2006,07,10,00,13,18.90
2006,07,10,00,14,18.90
2006,07,10,00,15,18.90
2006,07,10,00,16,18.90
2006,07,10,00,17,18.90
2006,07,10,00,18,18.90
2006,07,10,00,19,18.90
2006,07,10,00,20,18.90
2006,07,10,00,21,18.90
2006,07,10,00,22,18.90
2006,07,10,00,23,18.90
2006,07,10,00,24,18.80
2006,07,10,00,25,18.80
2006,07,10,00,26,18.80
2006,07,10,00,27,18.80
2006,07,10,00,28,18.80
2006,07,10,00,29,18.80
2006,07,10,00,30,18.80
2006,07,10,00,31,18.80
2006,07,10,00,32,18.80
2006,07,10,00,33,18.70
2006,07,10,00,34,18.70
2006,07,10,00,35,18.60
2006,07,10,00,36,18.60
2006,07,10,00,37,18.60
2006,07,10,00,38,18.50
2006,07,10,00,39,18.50
2006,07,10,00,40,18.50
2006,07,10,00,41,18.50
2006,07,10,00,42,18.50
2006,07,10,00,43,18.50
2006,07,10,00,44,18.40
2006,07,10,00,45,18.40
2006,07,10,00,46,18.40
2006,07,10,00,47,18.40
2006,07,10,00,48,18.40
2006,07,10,00,49,18.30
2006,07,10,00,50,18.30
2006,07,10,00,51,18.30
2006,07,10,00,52,18.20
2006,07,10,00,53,18.20
2006,07,10,00,54,18.20
2006,07,10,00,55,18.20
2006,07,10,00,56,18.10
2006,07,10,00,57,18.10
2006,07,10,00,58,18.10
2006,07,10,00,59,18.00
2006,07,10,01,00,17.90
2006,07,10,01,01,17.90
2006,07,10,01,02,17.90
2006,07,10,01,03,17.90
2006,07,10,01,04,17.90
2006,07,10,01,05,17.90
2006,07,10,01,06,17.90
2006,07,10,01,07,17.90
2006,07,10,01,08,17.90
2006,07,10,01,09,17.90
2006,07,10,01,10,17.90
2006,07,10,01,11,17.90
2006,07,10,01,12,17.90
2006,07,10,01,13,17.90
2006,07,10,01,14,17.80
2006,07,10,01,15,17.80
2006,07,10,01,16,17.80
2006,07,10,01,17,17.80
2006,07,10,01,18,17.80
2006,07,10,01,19,17.70
2006,07,10,01,20,17.70
2006,07,10,01,21,17.70
2006,07,10,01,22,17.70
2006,07,10,01,23,17.70
2006,07,10,01,24,17.70
2006,07,10,01,25,17.70
2006,07,10,01,26,17.70
2006,07,10,01,27,17.70
2006,07,10,01,28,17.70
2006,07,10,01,29,17.70
2006,07,10,01,30,17.70
2006,07,10,01,31,17.70
2006,07,10,01,32,17.70
2006,07,10,01,33,17.70
2006,07,10,01,34,17.70
2006,07,10,01,35,17.70
2006,07,10,01,36,17.60
2006,07,10,01,37,17.60
2006,07,10,01,38,17.60
2006,07,10,01,39,17.50
2006,07,10,01,40,17.50
2006,07,10,01,41,17.50
2006,07,10,01,42,17.40
2006,07,10,01,43,17.40
2006,07,10,01,44,17.40
2006,07,10,01,45,17.30
2006,07,10,01,46,17.30
2006,07,10,01,47,17.20
2006,07,10,01,48,17.10
2006,07,10,01,49,17.10
2006,07,10,01,50,17.10
2006,07,10,01,51,17.10
2006,07,10,01,52,17.10
2006,07,10,01,53,17.20
2006,07,10,01,54,17.20
2006,07,10,01,55,17.20
2006,07,10,01,56,17.20
2006,07,10,01,57,17.20
2006,07,10,01,58,17.20
2006,07,10,01,59,17.20
2006,07,10,02,00,17.10
2006,07,10,02,01,17.10
2006,07,10,02,02,17.10
2006,07,10,02,03,17.00
2006,07,10,02,04,17.00
2006,07,10,02,05,16.90
2006,07,10,02,06,16.90
2006,07,10,02,07,16.90
2006,07,10,02,08,16.80
2006,07,10,02,09,16.70
2006,07,10,02,10,16.70
2006,07,10,02,11,16.70
2006,07,10,02,12,16.70
2006,07,10,02,13,16.70
2006,07,10,02,14,16.60
2006,07,10,02,15,16.60
2006,07,10,02,16,16.60
2006,07,10,02,17,16.60
2006,07,10,02,18,16.50
2006,07,10,02,19,16.40
2006,07,10,02,20,16.40
2006,07,10,02,21,16.40
2006,07,10,02,22,16.40
2006,07,10,02,23,16.40
2006,07,10,02,24,16.40
2006,07,10,02,25,16.40
2006,07,10,02,26,16.40
2006,07,10,02,27,16.40
2006,07,10,02,28,16.40
2006,07,10,02,29,16.40
2006,07,10,02,30,16.40
2006,07,10,02,31,16.30
2006,07,10,02,32,16.30
2006,07,10,02,33,16.30
2006,07,10,02,34,16.20
2006,07,10,02,35,16.20
2006,07,10,02,36,16.20
2006,07,10,02,37,16.20
2006,07,10,02,38,16.20
2006,07,10,02,39,16.20
2006,07,10,02,40,16.20
2006,07,10,02,41,16.20
2006,07,10,02,42,16.20
2006,07,10,02,43,16.10
2006,07,10,02,44,16.10
2006,07,10,02,45,16.10
2006,07,10,02,46,16.10
2006,07,10,02,47,16.10
2006,07,10,02,48,16.10
2006,07,10,02,49,16.00
2006,07,10,02,50,15.90
2006,07,10,02,51,15.80
2006,07,10,02,52,15.80
2006,07,10,02,53,15.70
2006,07,10,02,54,15.70
2006,07,10,02,55,15.60
2006,07,10,02,56,15.60
2006,07,10,02,57,15.50
2006,07,10,02,58,15.50
2006,07,10,02,59,15.40
2006,07,10,03,00,15.40
2006,07,10,03,01,15.30
2006,07,10,03,02,15.30
2006,07,10,03,03,15.30
2006,07,10,03,04,15.30
2006,07,10,03,05,15.20
2006,07,10,03,06,15.20
2006,07,10,03,07,15.20
2006,07,10,03,08,15.20
2006,07,10,03,09,15.10
2006,07,10,03,10,15.10
2006,07,10,03,11,15.10
2006,07,10,03,12,15.10
2006,07,10,03,13,15.10
2006,07,10,03,14,15.10
2006,07,10,03,15,15.00
2006,07,10,03,16,15.00
2006,07,10,03,17,15.00
2006,07,10,03,18,15.00
2006,07,10,03,19,14.90
2006,07,10,03,20,14.90
2006,07,10,03,21,14.90
2006,07,10,03,22,14.90
2006,07,10,03,23,14.90
2006,07,10,03,24,14.80
2006,07,10,03,25,14.80
2006,07,10,03,26,14.80
2006,07,10,03,27,14.80
2006,07,10,03,28,14.80
2006,07,10,03,29,14.80
2006,07,10,03,30,14.70
2006,07,10,03,31,14.70
2006,07,10,03,32,14.70
2006,07,10,03,33,14.60
2006,07,10,03,34,14.60
2006,07,10,03,35,14.60
2006,07,10,03,36,14.50
2006,07,10,03,37,14.50
2006,07,10,03,38,14.50
2006,07,10,03,39,14.50
2006,07,10,03,40,14.40
2006,07,10,03,41,14.40
2006,07,10,03,42,14.40
2006,07,10,03,43,14.40
2006,07,10,03,44,14.40
2006,07,10,03,45,14.30
2006,07,10,03,46,14.30
2006,07,10,03,47,14.20
2006,07,10,03,48,14.20
2006,07,10,03,49,14.20
2006,07,10,03,50,14.20
2006,07,10,03,51,14.20
2006,07,10,03,52,14.20
2006,07,10,03,53,14.10
2006,07,10,03,54,14.10
2006,07,10,03,55,14.10
2006,07,10,03,56,14.10
2006,07,10,03,57,14.10
2006,07,10,03,58,14.00
2006,07,10,03,59,14.00
2006,07,10,04,00,14.00
2006,07,10,04,01,14.00
2006,07,10,04,02,14.00
2006,07,10,04,03,14.00
2006,07,10,04,04,14.00
2006,07,10,04,05,13.90
2006,07,10,04,06,13.90
2006,07,10,04,07,13.90
2006,07,10,04,08,13.90
2006,07,10,04,09,13.90
2006,07,10,04,10,13.90
2006,07,10,04,11,13.90
2006,07,10,04,12,13.80
2006,07,10,04,13,13.80
2006,07,10,04,14,13.80
2006,07,10,04,15,13.80
2006,07,10,04,16,13.80
2006,07,10,04,17,13.80
2006,07,10,04,18,13.80
2006,07,10,04,19,13.70
2006,07,10,04,20,13.70
2006,07,10,04,21,13.70
2006,07,10,04,22,13.70
2006,07,10,04,23,13.70
2006,07,10,04,24,13.70
2006,07,10,04,25,13.70
2006,07,10,04,26,13.70
2006,07,10,04,27,13.70
2006,07,10,04,28,13.70
2006,07,10,04,29,13.70
2006,07,10,04,30,13.70
2006,07,10,04,31,13.70
2006,07,10,04,32,13.70
2006,07,10,04,33,13.60
2006,07,10,04,34,13.60
2006,07,10,04,35,13.60
2006,07,10,04,36,13.60
2006,07,10,04,37,13.60
2006,07,10,04,38,13.60
2006,07,10,04,39,13.60
2006,07,10,04,40,13.60
2006,07,10,04,41,13.50
2006,07,10,04,42,13.50
2006,07,10,04,43,13.50
2006,07,10,04,44,13.50
2006,07,10,04,45,13.50
2006,07,10,04,46,13.50
2006,07,10,04,47,13.50
2006,07,10,04,48,13.50
2006,07,10,04,49,13.40
2006,07,10,04,50,13.40
2006,07,10,04,51,13.40
2006,07,10,04,52,13.40
2006,07,10,04,53,13.40
2006,07,10,04,54,13.40
2006,07,10,04,55,13.40
2006,07,10,04,56,13.40
2006,07,10,04,57,13.40
2006,07,10,04,58,13.40
2006,07,10,04,59,13.30
2006,07,10,05,00,13.30
2006,07,10,05,01,13.30
2006,07,10,05,02,13.30
2006,07,10,05,03,13.30
2006,07,10,05,04,13.30
2006,07,10,05,05,13.30
2006,07,10,05,06,13.30
2006,07,10,05,07,13.30
2006,07,10,05,08,13.30
2006,07,10,05,09,13.20
2006,07,10,05,10,13.20
2006,07,10,05,11,13.20
2006,07,10,05,12,13.20
2006,07,10,05,13,13.20
2006,07,10,05,14,13.20
2006,07,10,05,15,13.10
2006,07,10,05,16,13.10
2006,07,10,05,17,13.10
2006,07,10,05,18,13.10
2006,07,10,05,19,13.10
2006,07,10,05,20,13.10
2006,07,10,05,21,13.10
2006,07,10,05,22,13.10
2006,07,10,05,23,13.10
2006,07,10,05,24,13.10
2006,07,10,05,25,13.00
2006,07,10,05,26,13.00
2006,07,10,05,27,13.00
2006,07,10,05,28,13.00
2006,07,10,05,29,13.00
2006,07,10,05,30,13.00
2006,07,10,05,31,13.00
2006,07,10,05,32,13.00
2006,07,10,05,33,13.00
2006,07,10,05,34,13.00
2006,07,10,05,35,13.00
2006,07,10,05,36,12.90
2006,07,10,05,37,12.90
2006,07,10,05,38,12.90
2006,07,10,05,39,12.90
2006,07,10,05,40,12.90
2006,07,10,05,41,12.90
2006,07,10,05,42,12.80
2006,07,10,05,43,12.80
2006,07,10,05,44,12.80
2006,07,10,05,45,12.80
2006,07,10,05,46,12.80
2006,07,10,05,47,12.80
2006,07,10,05,48,12.80
2006,07,10,05,49,12.80
2006,07,10,05,50,12.80
2006,07,10,05,51,12.80
2006,07,10,05,52,12.80
2006,07,10,05,53,12.70
2006,07,10,05,54,12.70
2006,07,10,05,55,12.70
2006,07,10,05,56,12.70
2006,07,10,05,57,12.70
2006,07,10,05,58,12.70
2006,07,10,05,59,12.60
2006,07,10,06,00,12.60
2006,07,10,06,01,12.60
2006,07,10,06,02,12.70
2006,07,10,06,03,12.70
2006,07,10,06,04,12.70
2006,07,10,06,05,12.80
2006,07,10,06,06,12.80
2006,07,10,06,07,12.80
2006,07,10,06,08,12.80
2006,07,10,06,09,12.80
2006,07,10,06,10,12.80
2006,07,10,06,11,12.80
2006,07,10,06,12,12.80
2006,07,10,06,13,12.80
2006,07,10,06,14,12.80
2006,07,10,06,15,12.80
2006,07,10,06,16,12.80
2006,07,10,06,17,12.80
2006,07,10,06,18,12.80
2006,07,10,06,19,12.80
2006,07,10,06,20,12.80
2006,07,10,06,21,12.80
2006,07,10,06,22,12.80
2006,07,10,06,23,12.90
2006,07,10,06,24,12.90
2006,07,10,06,25,12.90
2006,07,10,06,26,12.90
2006,07,10,06,27,12.90
2006,07,10,06,28,12.90
2006,07,10,06,29,12.90
2006,07,10,06,30,12.90
2006,07,10,06,31,12.90
2006,07,10,06,32,12.90
2006,07,10,06,33,13.00
2006,07,10,06,34,13.00
2006,07,10,06,35,13.00
2006,07,10,06,36,13.00
2006,07,10,06,37,13.00
2006,07,10,06,38,13.00
2006,07,10,06,39,13.10
2006,07,10,06,40,13.10
2006,07,10,06,41,13.10
2006,07,10,06,42,13.10
2006,07,10,06,43,13.20
2006,07,10,06,44,13.20
2006,07,10,06,45,13.20
2006,07,10,06,46,13.20
2006,07,10,06,47,13.30
2006,07,10,06,48,13.30
2006,07,10,06,49,13.30
2006,07,10,06,50,13.30
2006,07,10,06,51,13.30
2006,07,10,06,52,13.30
2006,07,10,06,53,13.30
2006,07,10,06,54,13.30
2006,07,10,06,55,13.40
2006,07,10,06,56,13.40
2006,07,10,06,57,13.50
2006,07,10,06,58,13.60
2006,07,10,06,59,13.60
2006,07,10,07,00,13.60
2006,07,10,07,01,13.60
2006,07,10,07,02,13.60
2006,07,10,07,03,13.70
2006,07,10,07,04,13.70
2006,07,10,07,05,13.70
2006,07,10,07,06,13.80
2006,07,10,07,07,13.80
2006,07,10,07,08,13.90
2006,07,10,07,09,14.00
2006,07,10,07,10,14.00
2006,07,10,07,11,14.10
2006,07,10,07,12,14.20
2006,07,10,07,13,14.20
2006,07,10,07,14,14.40
2006,07,10,07,15,14.50
2006,07,10,07,16,14.60
2006,07,10,07,17,14.80
2006,07,10,07,18,15.00
2006,07,10,07,19,15.10
2006,07,10,07,20,15.20
2006,07,10,07,21,15.30
2006,07,10,07,22,15.40
2006,07,10,07,23,15.50
2006,07,10,07,24,15.60
2006,07,10,07,25,15.70
2006,07,10,07,26,15.70
2006,07,10,07,27,15.60
2006,07,10,07,28,15.60
2006,07,10,07,29,15.50
2006,07,10,07,30,15.40
2006,07,10,07,31,15.30
2006,07,10,07,32,15.30
2006,07,10,07,33,15.30
2006,07,10,07,34,15.20
2006,07,10,07,35,15.20
2006,07,10,07,36,15.20
2006,07,10,07,37,15.20
2006,07,10,07,38,15.30
2006,07,10,07,39,15.20
2006,07,10,07,40,15.20
2006,07,10,07,41,15.20
2006,07,10,07,42,15.20
2006,07,10,07,43,15.20
2006,07,10,07,44,15.20
2006,07,10,07,45,15.20
2006,07,10,07,46,15.20
2006,07,10,07,47,15.20
2006,07,10,07,48,15.20
2006,07,10,07,49,15.20
2006,07,10,07,50,15.30
2006,07,10,07,51,15.30
2006,07,10,07,52,15.30
2006,07,10,07,53,15.30
2006,07,10,07,54,15.40
2006,07,10,07,55,15.40
2006,07,10,07,56,15.40
2006,07,10,07,57,15.40
2006,07,10,07,58,15.50
2006,07,10,07,59,15.50
2006,07,10,08,00,15.60
2006,07,10,08,01,15.70
2006,07,10,08,02,15.80
2006,07,10,08,03,15.80
2006,07,10,08,04,15.80
2006,07,10,08,05,15.90
2006,07,10,08,06,15.90
2006,07,10,08,07,16.00
2006,07,10,08,08,16.10
2006,07,10,08,09,16.10
2006,07,10,08,10,16.10
2006,07,10,08,11,16.10
2006,07,10,08,12,16.10
2006,07,10,08,13,16.10
2006,07,10,08,14,16.10
2006,07,10,08,15,16.10
2006,07,10,08,16,16.00
2006,07,10,08,17,15.90
2006,07,10,08,18,15.80
2006,07,10,08,19,15.80
2006,07,10,08,20,15.70
2006,07,10,08,21,15.70
2006,07,10,08,22,15.50
2006,07,10,08,23,15.40
2006,07,10,08,24,15.20
2006,07,10,08,25,15.10
2006,07,10,08,26,15.00
2006,07,10,08,27,15.00
2006,07,10,08,28,14.90
2006,07,10,08,29,14.80
2006,07,10,08,30,14.80
2006,07,10,08,31,14.70
2006,07,10,08,32,14.70
2006,07,10,08,33,14.60
2006,07,10,08,34,14.60
2006,07,10,08,35,14.60
2006,07,10,08,36,14.60
2006,07,10,08,37,14.50
2006,07,10,08,38,14.50
2006,07,10,08,39,14.50
2006,07,10,08,40,14.50
2006,07,10,08,41,14.40
2006,07,10,08,42,14.30
2006,07,10,08,43,14.20
2006,07,10,08,44,14.10
2006,07,10,08,45,14.10
2006,07,10,08,46,14.10
2006,07,10,08,47,14.20
2006,07,10,08,48,14.20
2006,07,10,08,49,14.20
2006,07,10,08,50,14.10
2006,07,10,08,51,14.10
2006,07,10,08,52,14.10
2006,07,10,08,53,14.10
2006,07,10,08,54,14.10
2006,07,10,08,55,14.10
2006,07,10,08,56,14.10
2006,07,10,08,57,14.10
2006,07,10,08,58,14.00
2006,07,10,08,59,14.00
2006,07,10,09,00,13.90
2006,07,10,09,01,13.90
2006,07,10,09,02,13.90
2006,07,10,09,03,14.00
2006,07,10,09,04,14.00
2006,07,10,09,05,14.10
2006,07,10,09,06,14.20
2006,07,10,09,07,14.30
2006,07,10,09,08,14.40
2006,07,10,09,09,14.50
2006,07,10,09,10,14.50
2006,07,10,09,11,14.50
2006,07,10,09,12,14.50
2006,07,10,09,13,14.50
2006,07,10,09,14,14.50
2006,07,10,09,15,14.60
2006,07,10,09,16,14.80
2006,07,10,09,17,14.90
2006,07,10,09,18,15.10
2006,07,10,09,19,15.20
2006,07,10,09,20,15.20
2006,07,10,09,21,15.30
2006,07,10,09,22,15.30
2006,07,10,09,23,15.30
2006,07,10,09,24,15.30
2006,07,10,09,25,15.30
2006,07,10,09,26,15.20
2006,07,10,09,27,15.10
2006,07,10,09,28,15.10
2006,07,10,09,29,15.00
2006,07,10,09,30,14.90
2006,07,10,09,31,14.80
2006,07,10,09,32,14.80
2006,07,10,09,33,14.70
2006,07,10,09,34,14.70
2006,07,10,09,35,14.80
2006,07,10,09,36,14.90
2006,07,10,09,37,15.00
2006,07,10,09,38,15.20
2006,07,10,09,39,15.20
2006,07,10,09,40,15.30
2006,07,10,09,41,15.40
2006,07,10,09,42,15.50
2006,07,10,09,43,15.60
2006,07,10,09,44,15.60
2006,07,10,09,45,15.70
2006,07,10,09,46,15.80
2006,07,10,09,47,16.00
2006,07,10,09,48,16.10
2006,07,10,09,49,16.20
2006,07,10,09,50,16.20
2006,07,10,09,51,16.20
2006,07,10,09,52,16.10
2006,07,10,09,53,16.10
2006,07,10,09,54,16.10
2006,07,10,09,55,16.20
2006,07,10,09,56,16.30
2006,07,10,09,57,16.30
2006,07,10,09,58,16.20
2006,07,10,09,59,16.10
2006,07,10,10,00,16.10
2006,07,10,10,01,16.20
2006,07,10,10,02,16.30
2006,07,10,10,03,16.40
2006,07,10,10,04,16.60
2006,07,10,10,05,16.70
2006,07,10,10,06,16.80
2006,07,10,10,07,16.80
2006,07,10,10,08,16.70
2006,07,10,10,09,16.60
2006,07,10,10,10,16.60
2006,07,10,10,11,16.70
2006,07,10,10,12,16.70
2006,07,10,10,13,16.70
2006,07,10,10,14,16.70
2006,07,10,10,15,16.50
2006,07,10,10,16,16.40
2006,07,10,10,17,16.50
2006,07,10,10,18,16.60
2006,07,10,10,19,16.60
2006,07,10,10,20,16.60
2006,07,10,10,21,16.40
2006,07,10,10,22,16.40
2006,07,10,10,23,16.30
2006,07,10,10,24,16.20
2006,07,10,10,25,16.30
2006,07,10,10,26,16.20
2006,07,10,10,27,16.20
2006,07,10,10,28,16.20
2006,07,10,10,29,16.20
2006,07,10,10,30,16.30
2006,07,10,10,31,16.30
2006,07,10,10,32,16.40
2006,07,10,10,33,16.40
2006,07,10,10,34,16.40
2006,07,10,10,35,16.40
2006,07,10,10,36,16.50
2006,07,10,10,37,16.60
2006,07,10,10,38,16.60
2006,07,10,10,39,16.60
2006,07,10,10,40,16.70
2006,07,10,10,41,16.70
2006,07,10,10,42,16.80
2006,07,10,10,43,16.80
2006,07,10,10,44,16.90
2006,07,10,10,45,17.00
2006,07,10,10,46,17.20
2006,07,10,10,47,17.40
2006,07,10,10,48,17.50
2006,07,10,10,49,17.60
2006,07,10,10,50,17.60
2006,07,10,10,51,17.60
2006,07,10,10,52,17.60
2006,07,10,10,53,17.70
2006,07,10,10,54,17.70
2006,07,10,10,55,17.80
2006,07,10,10,56,17.80
2006,07,10,10,57,17.80
2006,07,10,10,58,17.70
2006,07,10,10,59,17.50
2006,07,10,11,00,17.40
2006,07,10,11,01,17.30
2006,07,10,11,02,17.20
2006,07,10,11,03,17.10
2006,07,10,11,04,17.10
2006,07,10,11,05,17.10
2006,07,10,11,06,17.20
2006,07,10,11,07,17.30
2006,07,10,11,08,17.30
2006,07,10,11,09,17.40
2006,07,10,11,10,17.40
2006,07,10,11,11,17.40
2006,07,10,11,12,17.40
2006,07,10,11,13,17.30
2006,07,10,11,14,17.30
2006,07,10,11,15,17.30
2006,07,10,11,16,17.30
2006,07,10,11,17,17.40
2006,07,10,11,18,17.40
2006,07,10,11,19,17.40
2006,07,10,11,20,17.50
2006,07,10,11,21,17.50
2006,07,10,11,22,17.60
2006,07,10,11,23,17.60
2006,07,10,11,24,17.50
2006,07,10,11,25,17.40
2006,07,10,11,26,17.30
2006,07,10,11,27,17.30
2006,07,10,11,28,17.30
2006,07,10,11,29,17.30
2006,07,10,11,30,17.30
2006,07,10,11,31,17.50
2006,07,10,11,32,17.70
2006,07,10,11,33,17.90
2006,07,10,11,34,18.10
2006,07,10,11,35,18.30
2006,07,10,11,36,18.50
2006,07,10,11,37,18.60
2006,07,10,11,38,18.70
2006,07,10,11,39,18.90
2006,07,10,11,40,19.10
2006,07,10,11,41,19.20
2006,07,10,11,42,19.40
2006,07,10,11,43,19.50
2006,07,10,11,44,19.50
2006,07,10,11,45,19.50
2006,07,10,11,46,19.40
2006,07,10,11,47,19.20
2006,07,10,11,48,19.10
2006,07,10,11,49,19.00
2006,07,10,11,50,18.90
2006,07,10,11,51,18.90
2006,07,10,11,52,18.90
2006,07,10,11,53,18.80
2006,07,10,11,54,18.70
2006,07,10,11,55,18.60
2006,07,10,11,56,18.60
2006,07,10,11,57,18.60
2006,07,10,11,58,18.60
2006,07,10,11,59,18.50
2006,07,10,12,00,18.50
2006,07,10,12,01,18.40
2006,07,10,12,02,18.40
2006,07,10,12,03,18.20
2006,07,10,12,04,18.10
2006,07,10,12,05,18.00
2006,07,10,12,06,17.90
2006,07,10,12,07,17.90
2006,07,10,12,08,17.80
2006,07,10,12,09,17.80
2006,07,10,12,10,17.70
2006,07,10,12,11,17.80
2006,07,10,12,12,17.80
2006,07,10,12,13,18.00
2006,07,10,12,14,18.10
2006,07,10,12,15,18.20
2006,07,10,12,16,18.20
2006,07,10,12,17,18.20
2006,07,10,12,18,18.20
2006,07,10,12,19,18.10
2006,07,10,12,20,18.20
2006,07,10,12,21,18.30
2006,07,10,12,22,18.30
2006,07,10,12,23,18.30
2006,07,10,12,24,18.30
2006,07,10,12,25,18.30
2006,07,10,12,26,18.30
2006,07,10,12,27,18.10
2006,07,10,12,28,18.00
2006,07,10,12,29,18.00
2006,07,10,12,30,18.10
2006,07,10,12,31,18.20
2006,07,10,12,32,18.20
2006,07,10,12,33,18.30
2006,07,10,12,34,18.50
2006,07,10,12,35,18.70
2006,07,10,12,36,18.70
2006,07,10,12,37,18.70
2006,07,10,12,38,18.70
2006,07,10,12,39,18.90
2006,07,10,12,40,19.10
2006,07,10,12,41,19.30
2006,07,10,12,42,19.40
2006,07,10,12,43,19.60
2006,07,10,12,44,19.80
2006,07,10,12,45,20.00
2006,07,10,12,46,20.20
2006,07,10,12,47,20.20
2006,07,10,12,48,20.00
2006,07,10,12,49,19.90
2006,07,10,12,50,19.80
2006,07,10,12,51,19.90
2006,07,10,12,52,19.90
2006,07,10,12,53,19.80
2006,07,10,12,54,19.90
2006,07,10,12,55,20.00
2006,07,10,12,56,20.20
2006,07,10,12,57,20.20
2006,07,10,12,58,20.20
2006,07,10,12,59,20.30
2006,07,10,13,00,20.30
2006,07,10,13,01,20.40
2006,07,10,13,02,20.50
2006,07,10,13,03,20.40
2006,07,10,13,04,20.40
2006,07,10,13,05,20.30
2006,07,10,13,06,20.20
2006,07,10,13,07,20.10
2006,07,10,13,08,20.00
2006,07,10,13,09,19.90
2006,07,10,13,10,19.80
2006,07,10,13,11,19.60
2006,07,10,13,12,19.60
2006,07,10,13,13,19.50
2006,07,10,13,14,19.50
2006,07,10,13,15,19.60
2006,07,10,13,16,19.50
2006,07,10,13,17,19.60
2006,07,10,13,18,19.80
2006,07,10,13,19,19.80
2006,07,10,13,20,19.90
2006,07,10,13,21,20.00
2006,07,10,13,22,20.20
2006,07,10,13,23,20.20
2006,07,10,13,24,20.20
2006,07,10,13,25,20.20
2006,07,10,13,26,20.10
2006,07,10,13,27,19.90
2006,07,10,13,28,19.90
2006,07,10,13,29,20.00
2006,07,10,13,30,20.20
2006,07,10,13,31,20.30
2006,07,10,13,32,20.40
2006,07,10,13,33,20.40
2006,07,10,13,34,20.30
2006,07,10,13,35,20.20
2006,07,10,13,36,20.00
2006,07,10,13,37,19.90
2006,07,10,13,38,19.90
2006,07,10,13,39,19.90
2006,07,10,13,40,20.10
2006,07,10,13,41,20.30
2006,07,10,13,42,20.20
2006,07,10,13,43,20.10
2006,07,10,13,44,19.90
2006,07,10,13,45,19.70
2006,07,10,13,46,19.40
2006,07,10,13,47,19.40
2006,07,10,13,48,19.40
2006,07,10,13,49,19.50
2006,07,10,13,50,19.60
2006,07,10,13,51,19.50
2006,07,10,13,52,19.50
2006,07,10,13,53,19.40
2006,07,10,13,54,19.30
2006,07,10,13,55,19.30
2006,07,10,13,56,19.30
2006,07,10,13,57,19.20
2006,07,10,13,58,19.20
2006,07,10,13,59,19.30
2006,07,10,14,00,19.40
2006,07,10,14,01,19.40
2006,07,10,14,02,19.30
2006,07,10,14,03,19.30
2006,07,10,14,04,19.40
2006,07,10,14,05,19.40
2006,07,10,14,06,19.40
2006,07,10,14,07,19.40
2006,07,10,14,08,19.50
2006,07,10,14,09,19.50
2006,07,10,14,10,19.60
2006,07,10,14,11,19.60
2006,07,10,14,12,19.70
2006,07,10,14,13,19.70
2006,07,10,14,14,19.70
2006,07,10,14,15,19.70
2006,07,10,14,16,19.60
2006,07,10,14,17,19.60
2006,07,10,14,18,19.50
2006,07,10,14,19,19.60
2006,07,10,14,20,19.60
2006,07,10,14,21,19.60
2006,07,10,14,22,19.70
2006,07,10,14,23,19.80
2006,07,10,14,24,19.80
2006,07,10,14,25,19.90
2006,07,10,14,26,19.90
2006,07,10,14,27,20.00
2006,07,10,14,28,19.80
2006,07,10,14,29,19.60
2006,07,10,14,30,19.70
2006,07,10,14,31,19.80
2006,07,10,14,32,19.80
2006,07,10,14,33,19.80
2006,07,10,14,34,19.90
2006,07,10,14,35,19.70
2006,07,10,14,36,19.60
2006,07,10,14,37,19.50
2006,07,10,14,38,19.60
2006,07,10,14,39,19.60
2006,07,10,14,40,19.70
2006,07,10,14,41,20.00
2006,07,10,14,42,20.10
2006,07,10,14,43,20.20
2006,07,10,14,44,20.10
2006,07,10,14,45,20.10
2006,07,10,14,46,19.90
2006,07,10,14,47,19.90
2006,07,10,14,48,20.00
2006,07,10,14,49,20.20
2006,07,10,14,50,20.30
2006,07,10,14,51,20.30
2006,07,10,14,52,20.20
2006,07,10,14,53,20.20
2006,07,10,14,54,20.30
2006,07,10,14,55,20.40
2006,07,10,14,56,20.60
2006,07,10,14,57,20.60
2006,07,10,14,58,20.60
2006,07,10,14,59,20.50
2006,07,10,15,00,20.50
2006,07,10,15,01,20.50
2006,07,10,15,02,20.50
2006,07,10,15,03,20.60
2006,07,10,15,04,20.60
2006,07,10,15,05,20.50
2006,07,10,15,06,20.40
2006,07,10,15,07,20.20
2006,07,10,15,08,20.20
2006,07,10,15,09,20.20
2006,07,10,15,10,20.10
2006,07,10,15,11,20.00
2006,07,10,15,12,20.00
2006,07,10,15,13,20.20
2006,07,10,15,14,20.20
2006,07,10,15,15,20.20
2006,07,10,15,16,20.10
2006,07,10,15,17,20.00
2006,07,10,15,18,19.90
2006,07,10,15,19,19.90
2006,07,10,15,20,19.90
2006,07,10,15,21,19.90
2006,07,10,15,22,19.90
2006,07,10,15,23,19.90
2006,07,10,15,24,19.80
2006,07,10,15,25,19.90
2006,07,10,15,26,20.00
2006,07,10,15,27,20.10
2006,07,10,15,28,20.10
2006,07,10,15,29,20.20
2006,07,10,15,30,20.20
2006,07,10,15,31,20.20
2006,07,10,15,32,20.20
2006,07,10,15,33,20.30
2006,07,10,15,34,20.40
2006,07,10,15,35,20.50
2006,07,10,15,36,20.60
2006,07,10,15,37,20.70
2006,07,10,15,38,20.70
2006,07,10,15,39,20.70
2006,07,10,15,40,20.80
2006,07,10,15,41,20.80
2006,07,10,15,42,20.70
2006,07,10,15,43,20.60
2006,07,10,15,44,20.70
2006,07,10,15,45,20.80
2006,07,10,15,46,20.80
2006,07,10,15,47,21.00
2006,07,10,15,48,21.00
2006,07,10,15,49,21.00
2006,07,10,15,50,21.00
2006,07,10,15,51,21.00
2006,07,10,15,52,21.00
2006,07,10,15,53,21.00
2006,07,10,15,54,21.00
2006,07,10,15,55,21.00
2006,07,10,15,56,21.10
2006,07,10,15,57,21.20
2006,07,10,15,58,21.30
2006,07,10,15,59,21.30
2006,07,10,16,00,21.30
2006,07,10,16,01,21.30
2006,07,10,16,02,21.50
2006,07,10,16,03,21.70
2006,07,10,16,04,21.80
2006,07,10,16,05,21.90
2006,07,10,16,06,22.00
2006,07,10,16,07,21.90
2006,07,10,16,08,21.80
2006,07,10,16,09,21.70
2006,07,10,16,10,21.70
2006,07,10,16,11,21.70
2006,07,10,16,12,21.70
2006,07,10,16,13,21.60
2006,07,10,16,14,21.60
2006,07,10,16,15,21.70
2006,07,10,16,16,21.60
2006,07,10,16,17,21.60
2006,07,10,16,18,21.60
2006,07,10,16,19,21.50
2006,07,10,16,20,21.40
2006,07,10,16,21,21.40
2006,07,10,16,22,21.30
2006,07,10,16,23,21.30
2006,07,10,16,24,21.30
2006,07,10,16,25,21.30
2006,07,10,16,26,21.30
2006,07,10,16,27,21.30
2006,07,10,16,28,21.30
2006,07,10,16,29,21.30
2006,07,10,16,30,21.30
2006,07,10,16,31,21.30
2006,07,10,16,32,21.30
2006,07,10,16,33,21.40
2006,07,10,16,34,21.40
2006,07,10,16,35,21.30
2006,07,10,16,36,21.30
2006,07,10,16,37,21.30
2006,07,10,16,38,21.30
2006,07,10,16,39,21.30
2006,07,10,16,40,21.30
2006,07,10,16,41,21.30
2006,07,10,16,42,21.20
2006,07,10,16,43,21.20
2006,07,10,16,44,21.20
2006,07,10,16,45,21.30
2006,07,10,16,46,21.30
2006,07,10,16,47,21.30
2006,07,10,16,48,21.30
2006,07,10,16,49,21.30
2006,07,10,16,50,21.30
2006,07,10,16,51,21.30
2006,07,10,16,52,21.30
2006,07,10,16,53,21.30
2006,07,10,16,54,21.30
2006,07,10,16,55,21.30
2006,07,10,16,56,21.10
2006,07,10,16,57,21.20
2006,07,10,16,58,21.20
2006,07,10,16,59,21.30
2006,07,10,17,00,21.30
2006,07,10,17,01,21.30
2006,07,10,17,02,21.20
2006,07,10,17,03,21.30
2006,07,10,17,04,21.20
2006,07,10,17,05,21.00
2006,07,10,17,06,21.00
2006,07,10,17,07,20.90
2006,07,10,17,08,20.60
2006,07,10,17,09,20.00
2006,07,10,17,10,19.50
2006,07,10,17,11,19.20
2006,07,10,17,12,18.90
2006,07,10,17,13,18.80
2006,07,10,17,14,18.80
2006,07,10,17,15,18.70
2006,07,10,17,16,18.70
2006,07,10,17,17,18.60
2006,07,10,17,18,18.60
2006,07,10,17,19,18.70